Location: Fort Worth, Tx
(32.7431°N, 97.3695°W)
Time: 06:07:58
(UTC-05:00)

Altair - Pass Details

Date: 05 October 2023
Orbit: 1501 x 1682 km, 47.2° (Epoch: 06 December)

Event Time Altitude Azimuth Distance (km) Brightness Sun altitude
Rises 04:40:19 0° 267° (W) 4,745 - -46.6°
Reaches altitude 10° 04:43:38 10° 274° (W) 3,787 - -46.0°
Maximum altitude 04:52:38 41° 343° (NNW) 2,207 - -44.3°
Exits shadow 04:53:55 40° 0° (N) 2,259 8.4 -44.1°
Drops below altitude 10° 05:01:58 10° 51° (NE) 3,916 10.2 -42.6°
Sets 05:05:28 0° 59° (ENE) 4,920 11.0 -42.0°
